Benson, MN

4:49 AM CST on January 22, 2018 (GMT -0600)
Benson Municipal

Weather History for KBBB - May, 2013

Change the Weather History Date:

Monday, May 27, 2013

  Actual Average Record
Temperature  
Mean Temperature 58 °F -  
Max Temperature 62 °F 74 °F 98 °F (1969)
Min Temperature 53 °F 51 °F 35 °F (1965)
Degree Days  
Heating Degree Days 8    
Growing Degree Days 8 (Base 50)    
Moisture  
Dew Point 53 °F    
Average Humidity 83    
Maximum Humidity 94    
Minimum Humidity 72    
Precipitation  
Precipitation 0.00 in - - ()
Sea Level Pressure  
Sea Level Pressure 29.89 in    
Wind  
Wind Speed 10 mph (SE)    
Max Wind Speed 15 mph    
Max Gust Speed 21 mph    
Visibility 9 miles    
Events      
Averages and records for this station are not official NWS values.
T = Trace of Precipitation, MM = Missing Value Source: NWS Daily Summary

Daily Weather History Graph

Daily Weather History Graph

Search for Another Location

Airport or City:

Trip Planner

Search our weather history database for the weather conditions in past years. The results will help you decide how hot, cold, wet, or windy it might be!

Date:

Astronomy

May. 27, 2013 Rise Set
Actual Time 5:40 AM CDT 8:59 PM CDT
Civil Twilight 5:04 AM CDT 9:35 PM CDT
Nautical Twilight 4:17 AM CDT 10:22 PM CDT
Astronomical Twilight 3:19 AM CDT 11:21 PM CDT
Moon 11:35 PM CDT (5/27) 8:21 AM CDT (5/27)
Length of Visible Light 16h 30m
Length of Day
15h 18m
Waning Gibbous, 91% of the Moon is Illuminated
May 27
Waning Gibbous
May 31
Last Quarter
Jun 8
New
Jun 16
First Quarter
Jun 23
Full

Hourly Weather History & Observations

Time (CDT) Temp. Dew Point Humidity Pressure Visibility Wind Dir Wind Speed Gust Speed Precip Events Conditions
12:12 AM 55.4 °F 50.0 °F 82% 30.02 in 10.0 mi SSE 11.5 mph 17.3 mph N/A   Overcast
12:33 AM 55.4 °F 50.0 °F 82% 30.01 in 10.0 mi SSE 12.7 mph 18.4 mph N/A   Overcast
12:53 AM 55.4 °F 50.0 °F 82% 30.00 in 10.0 mi SE 9.2 mph - N/A   Overcast
1:12 AM 53.6 °F 48.2 °F 82% 29.98 in 10.0 mi SSE 6.9 mph - N/A   Overcast
1:33 AM 55.4 °F 50.0 °F 82% 30.00 in 10.0 mi SSE 10.4 mph 16.1 mph N/A   Overcast
1:53 AM 55.4 °F 50.0 °F 82% 30.00 in 10.0 mi SSE 15.0 mph 20.7 mph N/A   Overcast
2:12 AM 53.6 °F 50.0 °F 88% 29.99 in 10.0 mi SE 12.7 mph - N/A   Overcast
2:33 AM 53.6 °F 50.0 °F 88% 30.00 in 10.0 mi SSE 11.5 mph 18.4 mph N/A   Overcast
2:52 AM 53.6 °F 50.0 °F 88% 29.98 in 10.0 mi SE 12.7 mph 17.3 mph N/A   Overcast
3:12 AM 53.6 °F 50.0 °F 88% 29.97 in 7.0 mi SE 11.5 mph 18.4 mph N/A   Overcast
3:33 AM 53.6 °F 50.0 °F 88% 29.95 in 7.0 mi SE 9.2 mph - N/A   Overcast
3:52 AM 53.6 °F 50.0 °F 88% 29.95 in 7.0 mi SE 9.2 mph - N/A   Overcast
4:12 AM 53.6 °F 51.8 °F 94% 29.95 in 7.0 mi SSE 6.9 mph - N/A   Overcast
4:33 AM 53.6 °F 51.8 °F 94% 29.96 in 7.0 mi SE 9.2 mph - N/A   Overcast
4:52 AM 53.6 °F 51.8 °F 94% 29.95 in 4.0 mi SE 8.1 mph - N/A   Overcast
5:12 AM 53.6 °F 51.8 °F 94% 29.96 in 7.0 mi SE 8.1 mph - N/A   Overcast
5:33 AM 53.6 °F 51.8 °F 94% 29.96 in 10.0 mi SSE 9.2 mph - N/A   Overcast
5:52 AM 53.6 °F 51.8 °F 94% 29.96 in 10.0 mi SSE 8.1 mph - N/A   Overcast
6:13 AM 53.6 °F 51.8 °F 94% 29.95 in 10.0 mi SE 9.2 mph - N/A   Overcast
6:33 AM 53.6 °F 51.8 °F 94% 29.94 in 7.0 mi SE 9.2 mph - N/A   Overcast
6:52 AM 53.6 °F 51.8 °F 94% 29.93 in 5.0 mi SE 6.9 mph - N/A   Overcast
7:13 AM 53.6 °F 51.8 °F 94% 29.93 in 5.0 mi ESE 8.1 mph - N/A   Overcast
7:33 AM 53.6 °F 51.8 °F 94% 29.92 in 5.0 mi ESE 9.2 mph 16.1 mph N/A   Overcast
7:52 AM 53.6 °F 51.8 °F 94% 29.91 in 5.0 mi ESE 10.4 mph 17.3 mph N/A   Overcast
8:13 AM 53.6 °F 51.8 °F 94% 29.90 in 5.0 mi SE 11.5 mph 17.3 mph N/A   Overcast
8:33 AM 53.6 °F 51.8 °F 94% 29.89 in 7.0 mi SE 12.7 mph 20.7 mph N/A   Overcast
8:52 AM 55.4 °F 51.8 °F 88% 29.90 in 7.0 mi SE 9.2 mph 16.1 mph N/A   Overcast
9:13 AM 55.4 °F 51.8 °F 88% 29.91 in 10.0 mi SE 12.7 mph 18.4 mph N/A   Overcast
9:33 AM 55.4 °F 51.8 °F 88% 29.92 in 10.0 mi SE 11.5 mph 16.1 mph N/A   Overcast
9:52 AM 55.4 °F 51.8 °F 88% 29.93 in 7.0 mi SSE 15.0 mph 20.7 mph N/A   Overcast
10:13 AM 55.4 °F 51.8 °F 88% 29.93 in 7.0 mi SSE 8.1 mph - N/A   Overcast
10:32 AM 55.4 °F 51.8 °F 88% 29.92 in 5.0 mi SSE 10.4 mph 18.4 mph N/A   Overcast
10:52 AM 55.4 °F 51.8 °F 88% 29.91 in 5.0 mi SE 10.4 mph 16.1 mph N/A   Overcast
11:13 AM 55.4 °F 51.8 °F 88% 29.90 in 5.0 mi SSE 6.9 mph - N/A   Overcast
11:32 AM 59.0 °F 53.6 °F 82% 29.88 in 7.0 mi SE 10.4 mph 17.3 mph N/A   Overcast
11:52 AM 57.2 °F 53.6 °F 88% 29.88 in 7.0 mi SE 9.2 mph - N/A   Overcast
12:13 PM 57.2 °F 53.6 °F 88% 29.87 in 7.0 mi ESE 12.7 mph 18.4 mph N/A   Overcast
12:32 PM 60.8 °F 53.6 °F 77% 29.85 in 7.0 mi SE 13.8 mph 18.4 mph N/A   Overcast
12:53 PM 59.0 °F 53.6 °F 82% 29.86 in 7.0 mi SSE 11.5 mph 19.6 mph N/A   Overcast
1:13 PM 60.8 °F 53.6 °F 77% 29.86 in 10.0 mi SE 9.2 mph - N/A   Overcast
1:32 PM 60.8 °F 53.6 °F 77% 29.87 in 10.0 mi SE 6.9 mph - N/A   Overcast
1:53 PM 62.6 °F 53.6 °F 72% 29.87 in 10.0 mi ESE 9.2 mph - N/A   Overcast
2:13 PM 62.6 °F 55.4 °F 77% 29.87 in 10.0 mi SSE 10.4 mph - N/A   Overcast
2:32 PM 62.6 °F 55.4 °F 77% 29.87 in 10.0 mi SSE 9.2 mph - N/A   Overcast
2:53 PM 62.6 °F 55.4 °F 77% 29.88 in 10.0 mi SSE 9.2 mph - N/A   Overcast
3:13 PM 60.8 °F 53.6 °F 77% 29.87 in 7.0 mi SE 10.4 mph - N/A   Overcast
3:32 PM 60.8 °F 53.6 °F 77% 29.87 in 10.0 mi SE 10.4 mph - N/A   Overcast
3:53 PM 62.6 °F 55.4 °F 77% 29.87 in 10.0 mi South 9.2 mph - N/A   Overcast
4:12 PM 62.6 °F 53.6 °F 72% 29.86 in 10.0 mi SE 9.2 mph - N/A   Overcast
4:32 PM 62.6 °F 55.4 °F 77% 29.84 in 10.0 mi SE 8.1 mph - N/A   Overcast
4:53 PM 62.6 °F 53.6 °F 72% 29.83 in 10.0 mi ESE 10.4 mph - N/A   Overcast
5:12 PM 62.6 °F 53.6 °F 72% 29.84 in 10.0 mi SE 9.2 mph - N/A   Overcast
5:32 PM 62.6 °F 53.6 °F 72% 29.84 in 10.0 mi SE 10.4 mph - N/A   Overcast
5:53 PM 62.6 °F 53.6 °F 72% 29.84 in 10.0 mi ESE 8.1 mph - N/A   Overcast
6:12 PM 62.6 °F 53.6 °F 72% 29.84 in 10.0 mi SE 5.8 mph - N/A   Overcast
6:32 PM 62.6 °F 53.6 °F 72% 29.83 in 10.0 mi SE 5.8 mph - N/A   Overcast
6:53 PM 62.6 °F 53.6 °F 72% 29.83 in 10.0 mi SE 5.8 mph - N/A   Overcast
7:12 PM 62.6 °F 53.6 °F 72% 29.83 in 10.0 mi SE 6.9 mph - N/A   Overcast
7:32 PM 62.6 °F 53.6 °F 72% 29.83 in 10.0 mi SE 5.8 mph - N/A   Overcast
7:53 PM 62.6 °F 53.6 °F 72% 29.83 in 10.0 mi ESE 6.9 mph - N/A   Overcast
8:12 PM 62.6 °F 53.6 °F 72% 29.82 in 10.0 mi SE 6.9 mph - N/A   Overcast
8:32 PM 62.6 °F 53.6 °F 72% 29.82 in 10.0 mi SE 9.2 mph - N/A   Overcast
8:53 PM 60.8 °F 53.6 °F 77% 29.82 in 10.0 mi SE 4.6 mph - N/A   Overcast
9:12 PM 60.8 °F 53.6 °F 77% 29.82 in 10.0 mi SSE 5.8 mph - N/A   Overcast
9:32 PM 60.8 °F 53.6 °F 77% 29.82 in 10.0 mi SE 6.9 mph - N/A   Overcast
9:53 PM 60.8 °F 53.6 °F 77% 29.82 in 10.0 mi SSE 4.6 mph - N/A   Overcast
10:12 PM 60.8 °F 53.6 °F 77% 29.82 in 10.0 mi SE 6.9 mph - N/A   Overcast
10:32 PM 60.8 °F 53.6 °F 77% 29.83 in 10.0 mi SSE 8.1 mph - N/A   Overcast
10:53 PM 59.0 °F 53.6 °F 82% 29.83 in 10.0 mi SSE 9.2 mph - N/A   Overcast
11:12 PM 59.0 °F 53.6 °F 82% 29.82 in 10.0 mi SSE 10.4 mph - N/A   Overcast
11:32 PM 57.2 °F 53.6 °F 88% 29.82 in 10.0 mi South 8.1 mph - N/A   Overcast
11:53 PM 57.2 °F 53.6 °F 88% 29.81 in 10.0 mi SSE 4.6 mph - N/A   Overcast